Charleroi, Belgium

6:34 PM CEST on July 27, 2016 (GMT +0200)
Brussels South

Weather History for EBCI - January, 2013

Change the Weather History Date:

Friday, January 11, 2013

  Actual Average Record
Temperature  
Mean Temperature 32 °F -  
Max Temperature 35 °F 41 °F 53 °F (1998)
Min Temperature 30 °F 31 °F 19 °F (2003)
Degree Days  
Heating Degree Days 32    
Moisture  
Dew Point 31 °F    
Average Humidity 92    
Maximum Humidity 100    
Minimum Humidity 80    
Precipitation  
Precipitation 0.08 in - - ()
Sea Level Pressure  
Sea Level Pressure 30.01 in    
Wind  
Wind Speed 4 mph ()    
Max Wind Speed 9 mph    
Max Gust Speed -    
Visibility 1.9 miles    
Events Fog , Rain , Snow , Hail    
Averages and records for this station are not official NWS values.
T = Trace of Precipitation, MM = Missing Value Source: Averaged Metar Reports

Daily Weather History Graph

Daily Weather History Graph

Search for Another Location

Airport or City:

Trip Planner

Search our weather history database for the weather conditions in past years. The results will help you decide how hot, cold, wet, or windy it might be!

Date:

Astronomy

Jan. 11, 2013 Rise Set
Actual Time 8:39 AM CET 5:01 PM CET
Civil Twilight 8:01 AM CET 5:39 PM CET
Nautical Twilight 7:20 AM CET 6:20 PM CET
Astronomical Twilight 6:41 AM CET 6:59 PM CET
Moon 7:55 AM CET (1/11) 5:05 PM CET (1/11)
Length of Visible Light 9h 37m
Length of Day
8h 21m
Waning Crescent, 0% of the Moon is Illuminated
Jan 11
Waning Crescent
Jan 11
New
Jan 19
First Quarter
Jan 27
Full
Feb 3
Last Quarter

Hourly Weather History & Observations

Time (CET) Temp. Windchill Dew Point Humidity Pressure Visibility Wind Dir Wind Speed Gust Speed Precip Events Conditions
12:20 AM 32.0 °F 28.7 °F 30.2 °F 93% 29.89 in 3.1 mi West 3.5 mph - N/A   Mist
12:50 AM 32.0 °F - 30.2 °F 93% 29.89 in 2.5 mi West 2.3 mph - N/A   Mist
1:00 AM 32 °F - 31 °F 93% 29.94 in 2 mi West 2.2 mph - -   Mist
1:20 AM 33.8 °F - 32.0 °F 93% 29.89 in 2.5 mi NW 2.3 mph - N/A   Mist
1:50 AM 33.8 °F 30.8 °F 32.0 °F 93% 29.92 in 2.5 mi NNW 3.5 mph - N/A   Scattered Clouds
2:20 AM 33.8 °F - 32.0 °F 93% 29.92 in 2.5 mi Variable 2.3 mph - N/A   Scattered Clouds
2:50 AM 33.8 °F 30.8 °F 30.2 °F 87% 29.92 in 3.7 mi NW 3.5 mph - N/A   Mostly Cloudy
3:20 AM 32.0 °F 27.5 °F 30.2 °F 93% 29.92 in 3.7 mi NW 4.6 mph - N/A   Mostly Cloudy
3:50 AM 32.0 °F 27.5 °F 30.2 °F 93% 29.92 in 3.7 mi WNW 4.6 mph - N/A   Mostly Cloudy
4:00 AM 33 °F - 31 °F 89% 29.96 in 4 mi WNW 4.5 mph - -   Mostly Cloudy
4:20 AM 33.8 °F - 32.0 °F 93% 29.92 in 3.7 mi Variable 2.3 mph - N/A   Mostly Cloudy
4:50 AM 33.8 °F 29.6 °F 32.0 °F 93% 29.92 in 3.1 mi West 4.6 mph - N/A   Mostly Cloudy
5:20 AM 32.0 °F 28.7 °F 32.0 °F 100% 29.92 in 2.8 mi West 3.5 mph - N/A   Mostly Cloudy
5:50 AM 32.0 °F 27.5 °F 32.0 °F 100% 29.95 in 1.6 mi West 4.6 mph - N/A   Mostly Cloudy
6:20 AM 33.8 °F 29.6 °F 32.0 °F 93% 29.95 in 1.6 mi WNW 4.6 mph - N/A   Mostly Cloudy
6:50 AM 33.8 °F 29.6 °F 32.0 °F 93% 29.95 in 0.8 mi WNW 4.6 mph - N/A   Mostly Cloudy
7:00 AM 34 °F - 33 °F 94% 30.00 in 1 mi WNW 4.5 mph - -   Mist
7:20 AM 33.8 °F 29.6 °F 33.8 °F 100% 29.98 in 0.8 mi WNW 4.6 mph - N/A   Mostly Cloudy
7:50 AM 33.8 °F 29.6 °F 33.8 °F 100% 29.98 in 0.8 mi WNW 4.6 mph - N/A   Mostly Cloudy
8:20 AM 33.8 °F 30.8 °F 33.8 °F 100% 29.98 in 0.6 mi West 3.5 mph - N/A Fog Fog
8:50 AM 35.6 °F 32.8 °F 33.8 °F 93% 30.01 in 0.3 mi WNW 3.5 mph - N/A Fog Fog
9:20 AM 35.6 °F 29.9 °F 33.8 °F 93% 30.01 in 0.1 mi NE 6.9 mph - N/A Fog Fog
9:50 AM 33.8 °F 28.6 °F 33.8 °F 100% 30.01 in 0.6 mi NE 5.8 mph - N/A Fog Fog
10:00 AM 34 °F - 33 °F 97% 30.06 in 1 mi NE 6.7 mph - - Fog Partial Fog
10:20 AM 33.8 °F 28.6 °F 32.0 °F 93% 30.04 in 0.6 mi ENE 5.8 mph - N/A Fog Fog
10:50 AM 33.8 °F 29.6 °F 32.0 °F 93% 30.04 in 0.6 mi NE 4.6 mph - N/A Rain , Snow Light Snow
11:20 AM 33.8 °F 29.6 °F 32.0 °F 93% 30.04 in 0.6 mi ENE 4.6 mph - N/A Rain , Snow Light Snow
11:50 AM 32.0 °F 26.4 °F 32.0 °F 100% 30.04 in 0.3 mi ENE 5.8 mph - N/A Fog , Snow Light Snow
12:20 PM 33.8 °F 29.6 °F 32.0 °F 93% 30.04 in 0.1 mi ENE 4.6 mph - N/A Fog , Snow Light Snow
12:50 PM 33.8 °F 30.8 °F 32.0 °F 93% 30.04 in 0.3 mi ENE 3.5 mph - N/A Fog , Rain , Snow Light Snow
1:00 PM 33 °F - 32 °F 94% 30.08 in 0 mi ENE 4.5 mph - - Snow Light Snow
1:20 PM 33.8 °F 28.6 °F 32.0 °F 93% 30.04 in 0.5 mi NE 5.8 mph - N/A Fog , Rain , Snow Light Snow
1:50 PM 32.0 °F 25.6 °F 32.0 °F 100% 30.04 in 0.6 mi NNE 6.9 mph - N/A   Mostly Cloudy
2:20 PM 32.0 °F 24.8 °F 30.2 °F 93% 30.04 in 0.7 mi NE 8.1 mph - N/A   Overcast
2:50 PM 32.0 °F 24.2 °F 30.2 °F 93% 30.04 in 0.4 mi NNE 9.2 mph - N/A Fog , Snow Light Snow Showers
3:20 PM 32.0 °F 24.8 °F 30.2 °F 93% 30.04 in 0.3 mi NE 8.1 mph - N/A Fog , Snow Light Snow Showers
3:50 PM 32.0 °F 24.8 °F 28.4 °F 87% 30.04 in 0.6 mi ENE 8.1 mph - N/A Fog , Snow Light Snow Showers
4:00 PM 31 °F - 29 °F 90% 30.09 in 1 mi ENE 6.7 mph - - Snow Light Snow
4:20 PM 30.2 °F 24.3 °F 28.4 °F 93% 30.04 in 0.6 mi ENE 5.8 mph - N/A Fog , Snow Light Snow Showers
4:50 PM 30.2 °F 23.4 °F 28.4 °F 93% 30.04 in 0.5 mi ENE 6.9 mph - N/A Fog , Snow Light Snow Showers
5:20 PM 30.2 °F 24.3 °F 28.4 °F 93% 30.04 in 0.5 mi ENE 5.8 mph - N/A Fog , Snow Light Snow Showers
5:50 PM 30.2 °F 24.3 °F 28.4 °F 93% 30.04 in 0.8 mi East 5.8 mph - N/A Snow Light Snow Showers
6:20 PM 32.0 °F 27.5 °F 28.4 °F 87% 30.06 in 1.6 mi East 4.6 mph - N/A   Mostly Cloudy
6:50 PM 32.0 °F 27.5 °F 30.2 °F 93% 30.04 in 1.9 mi East 4.6 mph - N/A   Mostly Cloudy
7:00 PM 31 °F - 29 °F 91% 30.10 in 2 mi East 4.5 mph - -   Mist
7:20 PM 32.0 °F 27.5 °F 28.4 °F 87% 30.04 in 2.2 mi East 4.6 mph - N/A Snow Light Snow
7:50 PM 32.0 °F 27.5 °F 30.2 °F 93% 30.04 in 2.5 mi East 4.6 mph - N/A Snow Light Snow
8:20 PM 32.0 °F 27.5 °F 30.2 °F 93% 30.04 in 2.8 mi East 4.6 mph - N/A Snow Light Snow
8:50 PM 32.0 °F 25.6 °F 28.4 °F 87% 30.04 in 3.1 mi East 6.9 mph - N/A Snow Light Snow
9:20 PM 32.0 °F 24.8 °F 28.4 °F 87% 30.04 in 3.7 mi ENE 8.1 mph - N/A Snow Light Snow
9:50 PM 32.0 °F 25.6 °F 28.4 °F 87% 30.04 in 4.3 mi ENE 6.9 mph - N/A   Mostly Cloudy
10:00 PM 31 °F - 28 °F 86% 30.10 in 4 mi ENE 6.7 mph - - Hail Light Hail Showers
10:20 PM 32.0 °F 24.8 °F 28.4 °F 87% 30.06 in 4.3 mi ENE 8.1 mph - N/A   Mostly Cloudy
10:50 PM 32.0 °F 26.4 °F 26.6 °F 80% 30.04 in 5.0 mi East 5.8 mph - N/A   Partly Cloudy
11:20 PM 32.0 °F 24.8 °F 26.6 °F 80% 30.04 in 5.0 mi ENE 8.1 mph - N/A   Partly Cloudy
11:50 PM 32.0 °F 24.8 °F 26.6 °F 80% 30.04 in 5.6 mi ENE 8.1 mph - N/A   Unknown